{"data":{"norad_id":61690,"intl_designator":"2024-195D","name":"STARLINK-11340 [DTC]","alt_names":[],"object_type":"PAYLOAD","status":"ACTIVE","operator":null,"country":"US","launch_date":"2024-10-30","launch_site_code":"AFWTR","launch_vehicle":null,"mission":null,"orbit_class":"UNKNOWN","rcs_meters":null,"size_class":null,"mass_kg":null,"dimensions":null,"purposes":["comms"],"wikipedia_slug":null,"has_3d_model":false,"image_url":null,"decayed_at":null,"tle_current":{"epoch":"2026-09-21T20:53:57.008544Z","epoch_age_seconds":70129,"freshness":"FRESH","line1":"1 61690U 24195D   26264.87079871 -.00000022  00000+0  46805-5 0  9992","line2":"2 61690  53.1614 139.3383 0001391  71.2335 288.8834 15.69713901109844","mean_motion":15.69713901,"eccentricity":0.0001391,"inclination_deg":53.1614,"raan_deg":139.3383,"arg_perigee_deg":71.2335,"mean_anomaly_deg":288.8834,"bstar":4.6805e-6,"rev_number":10984,"period_min":91.736462235738,"perigee_km":358.77835197923,"apogee_km":360.65282256901,"semimajor_km":6737.8525872741,"source":"CELESTRAK","updated_at":"2026-09-22T09:00:49.406493Z"}}}